848  
ASUS46 KPDT 270425  
RWRPDT  
PENDLETON REGIONAL WEATHER ROUNDUP  
NATIONAL WEATHER SERVICE PENDLETON OREGON  
900 PM PDT WED JUL 26 2017  
 
NOTE: FAIR INDICATES FEW OR NO CLOUDS BELOW 12,000 FEET WITH NO  
SIGNIFICANT WEATHER AND/OR S TO VISIBILITY
.  
 
# INDICATES UNOFFICIAL STATION AND DATA  
 
WAZ520-270510-  
EAST SLOPES OF WASHINGTON CASCADES  
 
CITY SKY/WX TMP DP RH WIND PRES REMARKS
 
#BULLFROG N/A 74 52 46 SW9 N/A  
#CLE ELUM HS N/A 72 53 51 W6 29.93S  
#CLE ELUM LAKE N/A 68 53 59 N1 30.02S  
#EASTON DOT N/A 68 52 57 N3 N/A  
#ELK HTS DOT N/A 74 74 100 W6 N/A  
#GLENWOOD N/A 73 57 57 SW3 29.87R  
#NELSON 3SW N/A 68 50 53 CALM 30.09R  
#NILE N/A 74 51 44 S3 29.19R  
#TEANAWAY 4NE N/A 72 56 57 CALM N/A  
#TROUT LAKE 1NE N/A 74 57 55 CALM 29.89R  
#TROUT LAKE 1E N/A 74 55 51 CALM 30.01R  

 
 
WAZ521-270510-  
SIMCOE HIGHLANDS  
 
CITY SKY/WX TMP DP RH WIND PRES REMARKS
 
#BICKLETON HS N/A 72 55 55 W3 29.94R  
#CENTERVILLE 1SWN/A 75 53 46 W14 29.83R  
#GOLDENDALE 1NE N/A 76 34 22 SW3 N/A  
#GOLDENDALE 4W N/A 76 22 13 W7 30.01R  
#GOODNOE HILLS N/A 78 54 43 NW18 N/A  
#LYLE 6NE N/A 75 55 50 SW14 29.90R  
#PITT 4SE N/A 71 52 51 W10 29.91R  

 
 
WAZ026-270510-  
KITTITAS VALLEY  
 
CITY SKY/WX TMP DP RH WIND PRES REMARKS
 
ELLENSBURG AP CLEAR 77 50 39 NW20G28 29.95R  
#ELLENSBURG CWU N/A 76 51 42 N16 29.79R  
#ELLENSBURG 3NE N/A 75 53 46 N9 28.02R  
#ELLENSBURG 1E N/A 77 50 39 NW3 29.88R  
#KITTITAS 3S N/A 74 52 46 NW5 29.82R  
#MANASTASH RDG N/A 73 73 100 N12 N/A  
#ROCKY CYN DOT N/A 77 50 39 W16 N/A  
#RYEGRASS DOT N/A 74 51 44 W20G26 N/A  

 
 
WAZ027-270510-  
YAKIMA VALLEY  
 
CITY SKY/WX TMP DP RH WIND PRES REMARKS
 
SUNNYSIDE AP N/A 72 61 68 CALM 29.86R  
YAKIMA AIRPORT CLEAR 85 53 33 NW7 29.89R  
YAKIMA-VAGABOND CLEAR 83 49 31 N7 29.90R  
#DONALD 2NE N/A 98 32 10 SW3 28.77S HX 93  
#GRANDVIEW N/A 80 58 47 CALM 29.83R  
#MABTON N/A 82 47 29 SE5 29.83R  
#MOXEE 2E N/A 82 N/A N/A N5 29.83R  
#NACHES 2SW N/A 77 53 43 W12G25 29.92F  
#OUTLOOK DOT N/A 85 49 29 CALM 29.82R  
#PARKER DOT N/A 84 51 32 S10 29.87R  
#TERRACE HTS N/A 84 53 34 N5 29.78R  
#TOPPENISH N/A 86 57 37 CALM 29.74R  
#I82 S UMTANUM RN/A 78 51 39 N8 N/A  
#UNION GAP DOT N/A 84 50 31 N6 29.91R  
#W YAKIMA N/A 78 54 43 W5 29.82R  
#WHITE SWAN 5E N/A 85 56 37 CALM 29.82R  
#WILEY CITY 3W N/A 79 42 27 CALM 29.88R  
#ZILLAH DOT N/A 82 59 46 W3 N/A  

 
 
WAZ028-270510-  
LOWER COLUMBIA BASIN...WASHINGTON  
 
CITY SKY/WX TMP DP RH WIND PRES REMARKS
 
PASCO PTCLDY 93 50 23 S6 29.84R HX 90  
PROSSER AWOS N/A 77 57 50 CALM 29.88R  
RICHLAND AWOS PTCLDY 90 50 26 SE3 29.83R HX 87  
#BENTON CITY N/A 87 50 28 CALM 29.70R  
#CONNELL 5N N/A 82 47 29 CALM 29.81S  
#CONNELL 5NW N/A 84 55 37 CALM 29.77R  
#ELTOPIA 6NW N/A 82 57 43 CALM 28.84R  
#KAHLOTUS N/A 85 46 26 W5 29.80S  
#KENNEWICK 3S N/A 85 52 32 S5 29.81R  
#PATERSON N/A 84 56 38 SW1 29.80R  
#PROSSER DOT N/A 82 61 49 CALM 29.86R  
#SAGEMOOR 2W N/A 81 63 54 CALM 29.67R  
#TOUCHET 2S N/A 83 55 38 CALM 29.80R  
#WEST PASCO N/A 88 54 31 CALM 29.81R  

 
 
WAZ029-270510-  
FOOTHILLS OF THE BLUES...WASHINGTON  
 
CITY SKY/WX TMP DP RH WIND PRES REMARKS
 
WALLA WALLA AP CLEAR 86 52 31 SE7 29.90R  
#CLYDE 6NW N/A 75 48 38 CALM 29.81R  
#DAYTON SCHOOL N/A 76 44 32 N1 29.94R  
#LOWDEN 2SE N/A 81 55 41 CALM 29.82R  
#PLEASANT VIEW 1N/A 82 43 25 W3 29.83S  
#PRESCOTT N/A 73 55 53 CALM 29.81R  
#WHITMAN COLLEGEN/A 86 56 36 CALM 29.86S  
#WAITSBURG 5S N/A 79 43 28 CALM 29.91R  
#WAITSBURG 6SSE N/A 74 46 37 E3 29.88R  
#WALLA WALLA 5E N/A 75 50 41 NE2 N/A  
#WALLA WALLA U N/A 87 58 38 CALM 29.81  
#WHITMAN MISSIONN/A 81 61 51 CALM 29.83S  

 
 
WAZ030-270510-  
BLUE MOUNTAINS...WASHINGTON  
 
CITY SKY/WX TMP DP RH WIND PRES REMARKS
 
#DIXIE 5SE N/A 76 39 26 CALM 29.95R  

 
 
ORZ009-041-WAZ024-270510-  
COLUMBIA RIVER GORGE  
 
CITY SKY/WX TMP DP RH WIND PRES REMARKS
 
HOOD RIVER AP CLEAR 77 46 33 S5 29.97R  
THE DALLES AP CLEAR 84 49 30 W10 29.90R  
#ARLINGTON AIRPON/A 81 54 39 W16 29.85R  
#CELILO DOT N/A 85 56 37 SW8 N/A  
#LYLE N/A 81 58 46 W12 29.91R  
#MARYHILL N/A 80 51 36 N17G25 29.77R  
#RUFUS DOT N/A 85 N/A N/A W22 N/A  
#SMITHVILLE N/A 81 55 41 N10 29.90R  
 

 
 
ORZ510-270510-  
NORTH CENTRAL OREGON  
 
CITY SKY/WX TMP DP RH WIND PRES REMARKS
 
#ANTELOPE N/A 76 46 34 N3 29.72R  
#CHENOWITH 1W N/A 74 51 44 NW24G31 N/A  
#COW CYN RST AREN/A 76 44 32 NW3 N/A  
#DUFUR N/A 75 48 38 CALM 29.87R  
#DUFUR 9E N/A 73 47 40 W7 29.93R  
#GRASS VALLEY 1SN/A 74 44 34 W6 30.03R  
#KENT DOT N/A 76 44 32 NW12 N/A  
#MAUPIN SCHOOL N/A 80 52 38 W1 30.00R  
#MORO SCHOOL N/A 77 51 40 W9 29.96R  
#SHANIKO 5WSW N/A 74 44 34 N14 N/A  
#SHANIKO 4NW N/A 71 39 31 NW14 30.09R  
#TYGH VALLEY 2NEN/A 81 48 32 N9 29.88R  
#WAPANITIA AIRPON/A 74 49 41 W12 29.89R  
#WASCO 5NE N/A 77 53 43 W7 29.85R  

 
 
ORZ511-270510-  
CENTRAL OREGON  
 
CITY SKY/WX TMP DP RH WIND PRES REMARKS
 
BEND AIRPORT MOCLDY 75 50 41 NW5 30.10R  
MADRAS AIRPORT CLEAR 73 45 37 NW14 30.06R  
PRINEVILLE AP PTCLDY 75 48 38 NW10 30.08R  
REDMOND AIRPORT CLOUDY 78 46 32 NW12 30.06R  
#ASHWOOD SCHOOL N/A 80 47 31 NW1 29.99R  
#BEND 1SW N/A 67 62 84 CALM N/A  
#BEND-AWBREY N/A 70 56 61 N1 29.88R  
#BEND-KIM LN N/A 74 52 46 W3 29.83R  
#CULVER 8W N/A 76 51 42 CALM 30.06R  
#LAKE BILLY CHINN/A 77 N/A N/A S3 29.98R  
#MADRAS 4S N/A 76 21 13 N6 N/A  
#POWELL BUTTE N/A 76 52 43 W1 30.04R  
#PRINEVILLE N/A 79 54 42 N2 29.96R  
#PRINEVILLE 3N N/A 73 54 51 W2 29.97R  
#WARM SPRINGS N/A 79 50 36 CALM 29.79R  
 

 
 
 
ORZ509-270510-  
EAST SLOPES OF OREGON CASCADES  
 
CITY SKY/WX TMP DP RH WIND PRES REMARKS
 
SISTERS AWOS N/A 75 52 45 W15G24 N/A  
#BLUE BOX PASS N/A 63 N/A N/A W3 N/A  
#CAMP SHERMAN N/A 71 49 46 CALM 29.98F  
#LA PINE 4NW N/A 70 54 57 CALM 29.94R  
#LAVA BUTTE DOT N/A 73 51 46 CALM N/A  
#SISTERS ODOT N/A 75 49 40 W5 N/A  
#SISTERS 3N N/A 71 47 42 W3 29.98S  
#SUNRIVER N/A 71 54 55 CALM 30.07R  
#TUMALO 3W N/A 73 52 48 N2 29.76R  
#WANOGA BUTTE D N/A 63 47 56 W6 N/A  
 

 
 
ORZ044-270510-  
LOWER COLUMBIA BASIN...OREGON  
 
CITY SKY/WX TMP DP RH WIND PRES REMARKS
 
HERMISTON MOCLDY 84 53 34 SW6 29.86R  
#BOARDMAN SCHOOLN/A 87 52 30 SW7 29.83R  
#BOARDMAN 8SW N/A 81 58 46 SW12 29.84R  
#ECHO 8SW N/A 82 46 28 W2 29.88R  
#I-84 EX 198 DOTN/A 83 55 38 NE8 N/A  
#IONE SCHOOL N/A 84 45 26 SW7 29.87R  
#UMATILLA N/A 89 51 27 S3 29.74R  

 
 
ORZ507-270510-  
NORTHERN FOOTHILLS OF THE BLUES  
 
CITY SKY/WX TMP DP RH WIND PRES REMARKS
 
PENDLETON AIRPT PTCLDY 82 47 29 CALM 29.92R  
#ADAMS 3WNW N/A 72 46 39 CALM 29.83S  
#ATHENA N/A 75 50 41 CALM 29.87R  
#CAYUSE N/A 79 50 36 E6 29.83R  
#HELIX SCHOOL N/A 75 48 38 CALM 29.84S  
#HELIX 3N N/A 79 47 32 CALM 29.92S  
#HOLDMAN 6E N/A 82 49 32 CALM 29.65R  
#M-F GROVE ELEM N/A 77 49 37 CALM 29.87S  
#M-FREEWATER 5SEN/A 74 55 51 CALM 29.91R  
#PENDLETON DNTN N/A 79 49 35 CALM 29.89R  
#PDT AQUATIC CTRN/A 80 47 31 CALM 29.90S  
#PDT SUNRIDGE N/A 81 50 34 CALM 29.91S  
#PENDLETON 7NW N/A 81 53 38 CALM 29.92R  
#PILOT ROCK 1S N/A 79 48 34 CALM 29.96R  
#PILOT ROCK N/A 80 49 34 CALM 29.97R  
#TUTUILLA N/A 75 53 46 CALM 29.96S  
#UMAPINE 2E N/A 72 59 64 CALM 29.84R  
#WESTON SCHOOL N/A 75 45 34 NW1 29.85R  
 

 
 
ORZ508-270510-  
SOUTHERN FOOTHILLS OF THE BLUES  
 
CITY SKY/WX TMP DP RH WIND PRES REMARKS
 
LEXINGTON PTCLDY 81 41 24 W8 29.99R  
#AJAX N/A 78 40 26 S12 30.14S  
#CONDON 5W N/A 72 37 28 NW9 30.05R  
#FOSSIL SCHOOL N/A 79 41 26 N3 29.97R  
#HEPPNER EOC N/A 80 39 23 W2 29.80R  
#HEPPNER 4NE N/A 77 39 25 W8 29.85R  
#LEXINGTON 2SE N/A 80 44 28 CALM 29.91R  
#MIKKALO N/A 79 42 27 W7 30.09R  
#OLEX 4N N/A 81 51 35 W16 29.91R  
#RUGGS 5NE N/A 75 32 21 W6 30.17F  
#RUGGS 2SW N/A 76 35 22 W7 29.87R  
 

 
 
ORZ502-503-270510-  
BLUE MOUNTAINS  
 
CITY SKY/WX TMP DP RH WIND PRES REMARKS
 
MEACHAM PTCLDY 68 44 42 CALM 30.09R  
#BATTLE MTN DOT N/A 73 46 38 CALM N/A  
#GRANITE N/A 64 50 60 S3 29.80S  
#HEPPNER 15SE N/A 66 49 54 CALM 29.94R  
#LADD CYN SMT N/A 70 52 53 NW12 N/A  
#LADD CREEK ODOTN/A 74 52 46 SW3 N/A  
#LONG CREEK HS N/A 70 55 59 CALM N/A  
#N POWDER DOT N/A 71 63 76 W5 N/A  
#PIKES PEAK N/A 78 46 32 CALM 27.99S  
#TOLLGATE N/A 66 45 47 CALM 30.00R  
#TROY SCHOOL N/A 78 56 47 CALM 29.67R  
#UKIAH N/A 76 50 40 CALM 29.82R  
#WESTON 4E N/A 76 47 36 CALM 29.82R  

 
 
ORZ505-270510-  
JOHN DAY BASIN  
 
CITY SKY/WX TMP DP RH WIND PRES REMARKS
 
JOHN DAY PTCLDY 73 50 44 E9 30.11R  
#JOHN DAY KJDY N/A 77 N/A N/A E2 30.71R  
#DAYVILLE SCHOOLN/A 84 44 25 SE2 29.96R  
#MITCHELL N/A 81 51 35 CALM 30.21R  
#MITCHELL 8NW N/A 78 44 30 CALM 29.91R  
#MONUMENT HS N/A 82 47 29 CALM 29.93R  
#MT. VERNON 5SE N/A 68 52 57 E2 30.06S  
#SPRAY SCHOOL N/A 85 N/A N/A CALM N/A  

 
 
ORZ506-270510-  
OCHOCO AND JOHN DAY HIGHLANDS  
 
CITY SKY/WX TMP DP RH WIND PRES REMARKS
 
#HORSE RIDGE DO N/A 72 48 43 N6 N/A  
#IZEE 6NW N/A 62 60 93 CALM N/A  
#PAULINA ODOT N/A 78 44 30 S16 N/A  
#PINE MTN OBS N/A 64 45 50 N2 N/A  
#SENECA N/A 64 N/A N/A CALM N/A  
#SENECA 9NW N/A 58 56 93 CALM 29.88S  

 
 
ORZ049-270510-  
GRANDE RONDE VALLEY  
 
CITY SKY/WX TMP DP RH WIND PRES REMARKS
 
LA GRANDE PTCLDY 79 45 30 CALM 30.01R  
#COVE N/A 74 55 51 NW3 30.04R  
#COVE SCHOOL N/A 75 52 45 CALM 30.03R  
#COVE 6NW N/A 76 53 45 CALM 29.86R  
#ELGIN 3N N/A 74 46 37 CALM 29.98R  
#ELGIN 1E N/A 78 50 38 CALM N/A  
#IMBLER SCHOOL N/A 74 49 41 CALM 29.96R  
#ISLAND CITY 4N N/A 72 56 57 CALM 30.02R  
#LA GRANDE-LEFFEN/A 79 46 31 W6 30.01R  
#UNION 1S N/A 76 52 43 N1 29.86R  

 
 
ORZ050-270510-  
WALLOWA COUNTY  
 
CITY SKY/WX TMP DP RH WIND PRES REMARKS
 
JOSEPH AIRPORT PTCLDY 68 45 44 S6 30.11R  
#ENTERPRISE HS N/A 71 53 53 CALM 29.76R  
#IMNAHA SCHOOL N/A 78 49 36 CALM 29.93R  
#IMNAHA 10S N/A 79 44 29 SW3 29.99R  
#JOSEPH N/A 69 50 51 CALM 30.04R  
#JOSEPH 3N N/A 66 48 52 S1 30.11R  
#JOSEPH 3W N/A 69 50 51 SW2 29.97R  
#LOSTINE N/A 72 48 43 SW2 29.68R  
#LOSTINE 3SE N/A 66 47 50 CALM 30.10R  
#MT HOWARD 8000 N/A 61 38 42 CALM 30.40R  
#PROMISE 1S N/A 69 48 47 CALM 29.94R  
#WALLOWA LAKE N/A 66 50 56 S2 30.15R  
#WALLOWA SCHOOL N/A 71 54 55 CALM 29.98R  
 

 
 
CLICK HERE TO GO TO PREVIOUS BULLETINS.

The Nexlab OR Page
The Nexlab WA Page Main Text Page